Time,TemperatureF,DewpointF,PressureIn,WindDirection,WindDirectionDegrees,WindSpeedMPH,WindSpeedGustMPH,Humidity,HourlyPrecipIn,Conditions,Clouds,dailyrainin,SoftwareType,DateUTC
2013-06-05 00:00:00,66.8,56.3,29.91,WNW,293,0.0,-999.0,69,0.00,,,0.00,Wunderground v.1.15,2013-06-05 07:00:00,
2013-06-05 00:05:00,66.8,56.3,29.91,WNW,293,0.0,-999.0,69,0.00,,,0.00,Wunderground v.1.15,2013-06-05 07:05:00,
2013-06-05 00:10:00,66.8,56.3,29.91,WNW,293,0.0,-999.0,69,0.00,,,0.00,Wunderground v.1.15,2013-06-05 07:10:00,
2013-06-05 00:15:00,67.0,56.5,29.91,WNW,293,0.0,-999.0,69,0.00,,,0.00,Wunderground v.1.15,2013-06-05 07:15:00,
2013-06-05 00:20:00,67.0,56.5,29.91,WNW,293,0.0,-999.0,69,0.00,,,0.00,Wunderground v.1.15,2013-06-05 07:20:00,
2013-06-05 00:25:00,66.8,56.7,29.91,WNW,293,1.0,-999.0,70,0.00,,,0.00,Wunderground v.1.15,2013-06-05 07:25:00,
2013-06-05 00:30:00,66.8,56.7,29.91,WNW,293,1.0,-999.0,70,0.00,,,0.00,Wunderground v.1.15,2013-06-05 07:30:00,
2013-06-05 00:35:00,66.4,56.3,29.91,WNW,293,0.0,-999.0,70,0.00,,,0.00,Wunderground v.1.15,2013-06-05 07:35:00,
2013-06-05 00:40:00,66.4,56.3,29.91,WNW,293,0.0,-999.0,70,0.00,,,0.00,Wunderground v.1.15,2013-06-05 07:40:00,
2013-06-05 00:45:00,66.2,56.5,29.91,WNW,293,1.0,-999.0,71,0.00,,,0.00,Wunderground v.1.15,2013-06-05 07:45:00,
2013-06-05 00:50:00,66.2,56.5,29.91,WNW,293,1.0,-999.0,71,0.00,,,0.00,Wunderground v.1.15,2013-06-05 07:50:00,
2013-06-05 00:55:00,66.2,56.1,29.91,WNW,293,0.0,-999.0,70,0.00,,,0.00,Wunderground v.1.15,2013-06-05 07:55:00,
2013-06-05 01:00:00,66.2,56.1,29.91,WNW,293,0.0,-999.0,70,0.00,,,0.00,Wunderground v.1.15,2013-06-05 08:00:00,
2013-06-05 01:05:00,66.3,55.8,29.92,WNW,293,0.0,-999.0,69,0.00,,,0.00,Wunderground v.1.15,2013-06-05 08:05:00,
2013-06-05 01:10:00,66.3,55.8,29.92,WNW,293,0.0,-999.0,69,0.00,,,0.00,Wunderground v.1.15,2013-06-05 08:10:00,
2013-06-05 01:15:00,66.7,56.2,29.91,WNW,293,0.0,-999.0,69,0.00,,,0.00,Wunderground v.1.15,2013-06-05 08:15:00,
2013-06-05 01:20:00,66.7,56.2,29.91,WNW,293,0.0,-999.0,69,0.00,,,0.00,Wunderground v.1.15,2013-06-05 08:20:00,
2013-06-05 01:25:00,66.5,56.4,29.91,WNW,293,0.0,-999.0,70,0.00,,,0.00,Wunderground v.1.15,2013-06-05 08:25:00,
2013-06-05 01:30:00,66.5,56.4,29.91,WNW,293,0.0,-999.0,70,0.00,,,0.00,Wunderground v.1.15,2013-06-05 08:30:00,
2013-06-05 01:35:00,65.9,55.8,29.91,N/A,-737280,0.0,-999.0,70,0.00,,,0.00,Wunderground v.1.15,2013-06-05 08:35:00,
2013-06-05 01:40:00,65.9,55.8,29.91,N/A,-737280,0.0,-999.0,70,0.00,,,0.00,Wunderground v.1.15,2013-06-05 08:40:00,
2013-06-05 01:45:00,66.4,55.5,29.91,N/A,-737280,0.0,-999.0,68,0.00,,,0.00,Wunderground v.1.15,2013-06-05 08:45:00,
2013-06-05 01:50:00,66.4,55.5,29.91,N/A,-737280,0.0,-999.0,68,0.00,,,0.00,Wunderground v.1.15,2013-06-05 08:50:00,
2013-06-05 01:55:00,67.3,55.5,29.91,N/A,-737280,0.0,-999.0,66,0.00,,,0.00,Wunderground v.1.15,2013-06-05 08:55:00,
2013-06-05 02:00:00,67.3,55.5,29.91,N/A,-737280,0.0,-999.0,66,0.00,,,0.00,Wunderground v.1.15,2013-06-05 09:00:00,
2013-06-05 02:05:00,67.4,56.5,29.92,N/A,-737280,0.0,-999.0,68,0.00,,,0.00,Wunderground v.1.15,2013-06-05 09:05:00,
2013-06-05 02:10:00,67.4,56.5,29.92,N/A,-737280,0.0,-999.0,68,0.00,,,0.00,Wunderground v.1.15,2013-06-05 09:10:00,
2013-06-05 02:15:00,66.5,56.4,29.92,N/A,-737280,0.0,-999.0,70,0.00,,,0.00,Wunderground v.1.15,2013-06-05 09:15:00,
2013-06-05 02:20:00,66.5,56.4,29.92,N/A,-737280,0.0,-999.0,70,0.00,,,0.00,Wunderground v.1.15,2013-06-05 09:20:00,
2013-06-05 02:25:00,65.8,56.1,29.92,WNW,293,0.0,-999.0,71,0.00,,,0.00,Wunderground v.1.15,2013-06-05 09:25:00,
2013-06-05 02:30:00,65.8,56.1,29.92,WNW,293,0.0,-999.0,71,0.00,,,0.00,Wunderground v.1.15,2013-06-05 09:30:00,
2013-06-05 02:35:00,65.5,56.2,29.92,N/A,-737280,0.0,-999.0,72,0.00,,,0.00,Wunderground v.1.15,2013-06-05 09:35:00,
2013-06-05 02:40:00,65.5,56.2,29.92,N/A,-737280,0.0,-999.0,72,0.00,,,0.00,Wunderground v.1.15,2013-06-05 09:40:00,
2013-06-05 02:45:00,65.1,55.5,29.92,WNW,293,0.0,-999.0,71,0.00,,,0.00,Wunderground v.1.15,2013-06-05 09:45:00,
2013-06-05 02:50:00,65.1,55.5,29.92,WNW,293,0.0,-999.0,71,0.00,,,0.00,Wunderground v.1.15,2013-06-05 09:50:00,
2013-06-05 02:55:00,65.3,55.7,29.92,N/A,-737280,0.0,-999.0,71,0.00,,,0.00,Wunderground v.1.15,2013-06-05 09:55:00,
2013-06-05 03:00:00,65.3,55.7,29.92,N/A,-737280,0.0,-999.0,71,0.00,,,0.00,Wunderground v.1.15,2013-06-05 10:00:00,
2013-06-05 03:05:00,64.9,55.7,29.92,WNW,293,1.0,-999.0,72,0.00,,,0.00,Wunderground v.1.15,2013-06-05 10:05:00,
2013-06-05 03:10:00,64.9,55.7,29.92,WNW,293,1.0,-999.0,72,0.00,,,0.00,Wunderground v.1.15,2013-06-05 10:10:00,
2013-06-05 03:15:00,64.1,55.6,29.92,WNW,293,0.0,-999.0,74,0.00,,,0.00,Wunderground v.1.15,2013-06-05 10:15:00,
2013-06-05 03:20:00,64.1,55.6,29.92,WNW,293,0.0,-999.0,74,0.00,,,0.00,Wunderground v.1.15,2013-06-05 10:20:00,
2013-06-05 03:25:00,63.5,55.1,29.92,N/A,-737280,0.0,-999.0,74,0.00,,,0.00,Wunderground v.1.15,2013-06-05 10:25:00,
2013-06-05 03:30:00,63.5,55.1,29.92,N/A,-737280,0.0,-999.0,74,0.00,,,0.00,Wunderground v.1.15,2013-06-05 10:30:00,
2013-06-05 03:35:00,63.6,55.2,29.92,WNW,293,0.0,-999.0,74,0.00,,,0.00,Wunderground v.1.15,2013-06-05 10:35:00,
2013-06-05 03:40:00,63.6,55.2,29.92,WNW,293,0.0,-999.0,74,0.00,,,0.00,Wunderground v.1.15,2013-06-05 10:40:00,
2013-06-05 03:45:00,63.7,55.3,29.92,WNW,293,0.0,-999.0,74,0.00,,,0.00,Wunderground v.1.15,2013-06-05 10:45:00,
2013-06-05 03:50:00,63.7,55.3,29.92,WNW,293,0.0,-999.0,74,0.00,,,0.00,Wunderground v.1.15,2013-06-05 10:50:00,
2013-06-05 03:55:00,63.1,55.4,29.92,WNW,293,0.0,-999.0,76,0.00,,,0.00,Wunderground v.1.15,2013-06-05 10:55:00,
2013-06-05 04:00:00,63.1,55.4,29.92,WNW,293,0.0,-999.0,76,0.00,,,0.00,Wunderground v.1.15,2013-06-05 11:00:00,
2013-06-05 04:05:00,62.4,55.1,29.92,WNW,293,0.0,-999.0,77,0.00,,,0.00,Wunderground v.1.15,2013-06-05 11:05:00,
2013-06-05 04:10:00,62.4,55.1,29.92,WNW,293,0.0,-999.0,77,0.00,,,0.00,Wunderground v.1.15,2013-06-05 11:10:00,
2013-06-05 04:15:00,62.5,54.8,29.92,WNW,293,0.0,-999.0,76,0.00,,,0.00,Wunderground v.1.15,2013-06-05 11:15:00,
2013-06-05 04:20:00,62.5,54.8,29.92,WNW,293,0.0,-999.0,76,0.00,,,0.00,Wunderground v.1.15,2013-06-05 11:20:00,
2013-06-05 04:25:00,62.6,54.9,29.92,WNW,293,0.0,-999.0,76,0.00,,,0.00,Wunderground v.1.15,2013-06-05 11:25:00,
2013-06-05 04:30:00,62.6,54.9,29.92,WNW,293,0.0,-999.0,76,0.00,,,0.00,Wunderground v.1.15,2013-06-05 11:30:00,
2013-06-05 04:35:00,62.4,54.7,29.92,WNW,293,0.0,-999.0,76,0.00,,,0.00,Wunderground v.1.15,2013-06-05 11:35:00,
2013-06-05 04:40:00,62.4,54.7,29.92,WNW,293,0.0,-999.0,76,0.00,,,0.00,Wunderground v.1.15,2013-06-05 11:40:00,
2013-06-05 04:45:00,62.0,54.3,29.92,N/A,-737280,0.0,-999.0,76,0.00,,,0.00,Wunderground v.1.15,2013-06-05 11:45:00,
2013-06-05 04:50:00,62.0,54.3,29.92,N/A,-737280,0.0,-999.0,76,0.00,,,0.00,Wunderground v.1.15,2013-06-05 11:50:00,
2013-06-05 04:55:00,62.0,54.3,29.93,N/A,-737280,0.0,-999.0,76,0.00,,,0.00,Wunderground v.1.15,2013-06-05 11:55:00,
2013-06-05 05:00:00,62.0,54.3,29.93,N/A,-737280,0.0,-999.0,76,0.00,,,0.00,Wunderground v.1.15,2013-06-05 12:00:00,
2013-06-05 05:05:00,62.1,54.4,29.93,WNW,293,1.0,-999.0,76,0.00,,,0.00,Wunderground v.1.15,2013-06-05 12:05:00,
2013-06-05 05:10:00,62.1,54.4,29.93,WNW,293,1.0,-999.0,76,0.00,,,0.00,Wunderground v.1.15,2013-06-05 12:10:00,
2013-06-05 05:15:00,61.4,54.5,29.93,WNW,293,0.0,-999.0,78,0.00,,,0.00,Wunderground v.1.15,2013-06-05 12:15:00,
2013-06-05 05:20:00,61.4,54.5,29.93,WNW,293,0.0,-999.0,78,0.00,,,0.00,Wunderground v.1.15,2013-06-05 12:20:00,
2013-06-05 05:25:00,61.1,54.2,29.94,N/A,-737280,0.0,-999.0,78,0.00,,,0.00,Wunderground v.1.15,2013-06-05 12:25:00,
2013-06-05 05:30:00,61.1,54.2,29.94,N/A,-737280,0.0,-999.0,78,0.00,,,0.00,Wunderground v.1.15,2013-06-05 12:30:00,
2013-06-05 05:35:00,61.3,53.7,29.94,N/A,-737280,0.0,-999.0,76,0.00,,,0.00,Wunderground v.1.15,2013-06-05 12:35:00,
2013-06-05 05:40:00,61.3,53.7,29.94,N/A,-737280,0.0,-999.0,76,0.00,,,0.00,Wunderground v.1.15,2013-06-05 12:40:00,
2013-06-05 05:45:00,61.6,54.0,29.94,WNW,293,0.0,-999.0,76,0.00,,,0.00,Wunderground v.1.15,2013-06-05 12:45:00,
2013-06-05 05:50:00,61.6,54.0,29.94,WNW,293,0.0,-999.0,76,0.00,,,0.00,Wunderground v.1.15,2013-06-05 12:50:00,
2013-06-05 05:55:00,61.1,54.5,29.94,WNW,293,0.0,-999.0,79,0.00,,,0.00,Wunderground v.1.15,2013-06-05 12:55:00,
2013-06-05 06:00:00,61.1,54.5,29.94,WNW,293,0.0,-999.0,79,0.00,,,0.00,Wunderground v.1.15,2013-06-05 13:00:00,
2013-06-05 06:05:00,60.6,54.0,29.94,WNW,293,0.0,-999.0,79,0.00,,,0.00,Wunderground v.1.15,2013-06-05 13:05:00,
2013-06-05 06:10:00,60.6,54.0,29.94,WNW,293,0.0,-999.0,79,0.00,,,0.00,Wunderground v.1.15,2013-06-05 13:10:00,
2013-06-05 06:15:00,60.9,54.0,29.94,WNW,293,0.0,-999.0,78,0.00,,,0.00,Wunderground v.1.15,2013-06-05 13:15:00,
2013-06-05 06:20:00,60.9,54.0,29.94,WNW,293,0.0,-999.0,78,0.00,,,0.00,Wunderground v.1.15,2013-06-05 13:20:00,
2013-06-05 06:25:00,61.1,54.5,29.94,N/A,-737280,0.0,-999.0,79,0.00,,,0.00,Wunderground v.1.15,2013-06-05 13:25:00,
2013-06-05 06:30:00,61.1,54.5,29.94,N/A,-737280,0.0,-999.0,79,0.00,,,0.00,Wunderground v.1.15,2013-06-05 13:30:00,
2013-06-05 06:35:00,61.3,54.7,29.94,N/A,-737280,0.0,-999.0,79,0.00,,,0.00,Wunderground v.1.15,2013-06-05 13:35:00,
2013-06-05 06:40:00,61.3,54.7,29.94,N/A,-737280,0.0,-999.0,79,0.00,,,0.00,Wunderground v.1.15,2013-06-05 13:40:00,
2013-06-05 06:45:00,61.8,54.9,29.95,N/A,-737280,0.0,-999.0,78,0.00,,,0.00,Wunderground v.1.15,2013-06-05 13:45:00,
2013-06-05 06:50:00,61.8,54.9,29.95,N/A,-737280,0.0,-999.0,78,0.00,,,0.00,Wunderground v.1.15,2013-06-05 13:50:00,
2013-06-05 06:55:00,62.8,54.4,29.95,N/A,-737280,0.0,-999.0,74,0.00,,,0.00,Wunderground v.1.15,2013-06-05 13:55:00,
2013-06-05 07:00:00,62.8,54.4,29.95,N/A,-737280,0.0,-999.0,74,0.00,,,0.00,Wunderground v.1.15,2013-06-05 14:00:00,
2013-06-05 07:05:00,63.9,55.4,29.95,N/A,-737280,0.0,-999.0,74,0.00,,,0.00,Wunderground v.1.15,2013-06-05 14:05:00,
2013-06-05 07:10:00,63.9,55.4,29.95,N/A,-737280,0.0,-999.0,74,0.00,,,0.00,Wunderground v.1.15,2013-06-05 14:10:00,
2013-06-05 07:15:00,64.2,56.1,29.95,WNW,293,0.0,-999.0,75,0.00,,,0.00,Wunderground v.1.15,2013-06-05 14:15:00,
2013-06-05 07:20:00,64.2,56.1,29.95,WNW,293,0.0,-999.0,75,0.00,,,0.00,Wunderground v.1.15,2013-06-05 14:20:00,
2013-06-05 07:25:00,65.0,55.8,29.95,WNW,293,0.0,-999.0,72,0.00,,,0.00,Wunderground v.1.15,2013-06-05 14:25:00,
2013-06-05 07:30:00,65.0,55.8,29.95,WNW,293,0.0,-999.0,72,0.00,,,0.00,Wunderground v.1.15,2013-06-05 14:30:00,
2013-06-05 07:35:00,66.5,56.0,29.95,WNW,293,0.0,-999.0,69,0.00,,,0.00,Wunderground v.1.15,2013-06-05 14:35:00,
2013-06-05 07:40:00,66.5,56.0,29.95,WNW,293,0.0,-999.0,69,0.00,,,0.00,Wunderground v.1.15,2013-06-05 14:40:00,
2013-06-05 07:45:00,66.7,56.6,29.95,WNW,293,1.0,-999.0,70,0.00,,,0.00,Wunderground v.1.15,2013-06-05 14:45:00,
2013-06-05 07:50:00,66.7,56.6,29.95,WNW,293,1.0,-999.0,70,0.00,,,0.00,Wunderground v.1.15,2013-06-05 14:50:00,
2013-06-05 07:55:00,67.4,56.5,29.95,WNW,293,0.0,-999.0,68,0.00,,,0.00,Wunderground v.1.15,2013-06-05 14:55:00,
2013-06-05 08:00:00,67.4,56.5,29.95,WNW,293,0.0,-999.0,68,0.00,,,0.00,Wunderground v.1.15,2013-06-05 15:00:00,
2013-06-05 08:05:00,69.0,57.2,29.96,WNW,293,1.0,-999.0,66,0.00,,,0.00,Wunderground v.1.15,2013-06-05 15:05:00,
2013-06-05 08:10:00,69.0,57.2,29.96,WNW,293,1.0,-999.0,66,0.00,,,0.00,Wunderground v.1.15,2013-06-05 15:10:00,
2013-06-05 08:15:00,69.6,57.3,29.96,WNW,293,1.0,-999.0,65,0.00,,,0.00,Wunderground v.1.15,2013-06-05 15:15:00,
2013-06-05 08:20:00,69.6,57.3,29.96,WNW,293,1.0,-999.0,65,0.00,,,0.00,Wunderground v.1.15,2013-06-05 15:20:00,
2013-06-05 08:25:00,70.2,57.0,29.96,WNW,293,0.0,-999.0,63,0.00,,,0.00,Wunderground v.1.15,2013-06-05 15:25:00,
2013-06-05 08:30:00,70.2,57.0,29.96,WNW,293,0.0,-999.0,63,0.00,,,0.00,Wunderground v.1.15,2013-06-05 15:30:00,
2013-06-05 08:35:00,71.5,55.9,29.97,WNW,293,0.0,-999.0,58,0.00,,,0.00,Wunderground v.1.15,2013-06-05 15:35:00,
2013-06-05 08:40:00,71.5,55.9,29.97,WNW,293,0.0,-999.0,58,0.00,,,0.00,Wunderground v.1.15,2013-06-05 15:40:00,
2013-06-05 08:45:00,72.4,57.3,29.97,WNW,293,0.0,-999.0,59,0.00,,,0.00,Wunderground v.1.15,2013-06-05 15:45:00,
2013-06-05 08:50:00,72.4,57.3,29.97,WNW,293,0.0,-999.0,59,0.00,,,0.00,Wunderground v.1.15,2013-06-05 15:50:00,
2013-06-05 08:55:00,73.3,57.1,29.97,WNW,293,0.0,-999.0,57,0.00,,,0.00,Wunderground v.1.15,2013-06-05 15:55:00,
2013-06-05 09:00:00,73.3,57.1,29.97,WNW,293,0.0,-999.0,57,0.00,,,0.00,Wunderground v.1.15,2013-06-05 16:00:00,
2013-06-05 09:05:00,74.1,56.4,29.97,WNW,293,0.0,-999.0,54,0.00,,,0.00,Wunderground v.1.15,2013-06-05 16:05:00,
2013-06-05 09:10:00,74.1,56.4,29.97,WNW,293,0.0,-999.0,54,0.00,,,0.00,Wunderground v.1.15,2013-06-05 16:10:00,
2013-06-05 09:15:00,74.3,57.1,29.97,WNW,293,0.0,-999.0,55,0.00,,,0.00,Wunderground v.1.15,2013-06-05 16:15:00,
2013-06-05 09:20:00,74.3,57.1,29.97,WNW,293,0.0,-999.0,55,0.00,,,0.00,Wunderground v.1.15,2013-06-05 16:20:00,
2013-06-05 09:25:00,75.3,57.0,29.97,WNW,293,0.0,-999.0,53,0.00,,,0.00,Wunderground v.1.15,2013-06-05 16:25:00,
2013-06-05 09:30:00,75.3,57.0,29.97,WNW,293,0.0,-999.0,53,0.00,,,0.00,Wunderground v.1.15,2013-06-05 16:30:00,
2013-06-05 09:35:00,76.5,58.6,29.97,East,90,1.0,-999.0,54,0.00,,,0.00,Wunderground v.1.15,2013-06-05 16:35:00,
2013-06-05 09:40:00,76.5,58.6,29.97,East,90,1.0,-999.0,54,0.00,,,0.00,Wunderground v.1.15,2013-06-05 16:40:00,
2013-06-05 09:45:00,76.5,58.6,29.97,WNW,293,0.0,-999.0,54,0.00,,,0.00,Wunderground v.1.15,2013-06-05 16:45:00,
2013-06-05 09:50:00,76.5,58.6,29.97,WNW,293,0.0,-999.0,54,0.00,,,0.00,Wunderground v.1.15,2013-06-05 16:50:00,
2013-06-05 09:55:00,76.9,59.5,29.97,West,270,1.0,-999.0,55,0.00,,,0.00,Wunderground v.1.15,2013-06-05 16:55:00,
2013-06-05 10:00:00,76.9,59.5,29.97,West,270,1.0,-999.0,55,0.00,,,0.00,Wunderground v.1.15,2013-06-05 17:00:00,
2013-06-05 10:05:00,76.9,59.0,29.97,SSE,158,1.0,-999.0,54,0.00,,,0.00,Wunderground v.1.15,2013-06-05 17:05:00,
2013-06-05 10:10:00,76.9,59.0,29.97,SSE,158,1.0,-999.0,54,0.00,,,0.00,Wunderground v.1.15,2013-06-05 17:10:00,
2013-06-05 10:15:00,76.6,59.2,29.97,SSE,158,1.0,-999.0,55,0.00,,,0.00,Wunderground v.1.15,2013-06-05 17:15:00,
2013-06-05 10:20:00,76.6,59.2,29.97,SSE,158,1.0,-999.0,55,0.00,,,0.00,Wunderground v.1.15,2013-06-05 17:20:00,
2013-06-05 10:25:00,77.6,59.6,29.97,SSW,203,1.0,-999.0,54,0.00,,,0.00,Wunderground v.1.15,2013-06-05 17:25:00,
2013-06-05 10:30:00,77.6,59.6,29.97,SSW,203,1.0,-999.0,54,0.00,,,0.00,Wunderground v.1.15,2013-06-05 17:30:00,
2013-06-05 10:35:00,78.5,59.4,29.97,ESE,113,2.0,-999.0,52,0.00,,,0.00,Wunderground v.1.15,2013-06-05 17:35:00,
2013-06-05 10:40:00,78.5,59.4,29.97,ESE,113,2.0,-999.0,52,0.00,,,0.00,Wunderground v.1.15,2013-06-05 17:40:00,
2013-06-05 10:45:00,78.7,59.6,29.96,SSE,158,1.0,-999.0,52,0.00,,,0.00,Wunderground v.1.15,2013-06-05 17:45:00,
2013-06-05 10:50:00,78.7,59.6,29.96,SSE,158,1.0,-999.0,52,0.00,,,0.00,Wunderground v.1.15,2013-06-05 17:50:00,
2013-06-05 10:55:00,79.9,59.6,29.97,East,90,1.0,-999.0,50,0.00,,,0.00,Wunderground v.1.15,2013-06-05 17:55:00,
2013-06-05 11:00:00,79.9,59.6,29.97,East,90,1.0,-999.0,50,0.00,,,0.00,Wunderground v.1.15,2013-06-05 18:00:00,
2013-06-05 11:05:00,79.3,60.7,29.96,SE,135,1.0,-999.0,53,0.00,,,0.00,Wunderground v.1.15,2013-06-05 18:05:00,
2013-06-05 11:10:00,79.3,60.7,29.96,SE,135,1.0,-999.0,53,0.00,,,0.00,Wunderground v.1.15,2013-06-05 18:10:00,
2013-06-05 11:15:00,79.7,60.0,29.96,ESE,113,2.0,-999.0,51,0.00,,,0.00,Wunderground v.1.15,2013-06-05 18:15:00,
2013-06-05 11:20:00,79.7,60.0,29.96,ESE,113,2.0,-999.0,51,0.00,,,0.00,Wunderground v.1.15,2013-06-05 18:20:00,
2013-06-05 11:25:00,80.0,59.7,29.96,ESE,113,2.0,-999.0,50,0.00,,,0.00,Wunderground v.1.15,2013-06-05 18:25:00,
2013-06-05 11:30:00,80.0,59.7,29.96,ESE,113,2.0,-999.0,50,0.00,,,0.00,Wunderground v.1.15,2013-06-05 18:30:00,
2013-06-05 11:35:00,80.3,59.4,29.96,ESE,113,1.0,-999.0,49,0.00,,,0.00,Wunderground v.1.15,2013-06-05 18:35:00,
2013-06-05 11:40:00,80.3,59.4,29.96,ESE,113,1.0,-999.0,49,0.00,,,0.00,Wunderground v.1.15,2013-06-05 18:40:00,
2013-06-05 11:45:00,81.9,60.9,29.96,ESE,113,2.0,-999.0,49,0.00,,,0.00,Wunderground v.1.15,2013-06-05 18:45:00,
2013-06-05 11:50:00,81.9,60.9,29.96,ESE,113,2.0,-999.0,49,0.00,,,0.00,Wunderground v.1.15,2013-06-05 18:50:00,
2013-06-05 11:55:00,81.6,59.4,29.96,SSE,158,2.0,-999.0,47,0.00,,,0.00,Wunderground v.1.15,2013-06-05 18:55:00,
2013-06-05 12:00:00,81.6,59.4,29.96,SSE,158,2.0,-999.0,47,0.00,,,0.00,Wunderground v.1.15,2013-06-05 19:00:00,
2013-06-05 12:05:00,81.3,59.7,29.96,SE,135,2.0,-999.0,48,0.00,,,0.00,Wunderground v.1.15,2013-06-05 19:05:00,
2013-06-05 12:10:00,81.3,59.7,29.96,SE,135,2.0,-999.0,48,0.00,,,0.00,Wunderground v.1.15,2013-06-05 19:10:00,
2013-06-05 12:15:00,81.7,58.9,29.95,SE,135,1.0,-999.0,46,0.00,,,0.00,Wunderground v.1.15,2013-06-05 19:15:00,
2013-06-05 12:20:00,81.7,58.9,29.95,SE,135,1.0,-999.0,46,0.00,,,0.00,Wunderground v.1.15,2013-06-05 19:20:00,
2013-06-05 12:25:00,82.0,60.4,29.95,SE,135,2.0,-999.0,48,0.00,,,0.00,Wunderground v.1.15,2013-06-05 19:25:00,
2013-06-05 12:30:00,82.0,60.4,29.95,SE,135,2.0,-999.0,48,0.00,,,0.00,Wunderground v.1.15,2013-06-05 19:30:00,
2013-06-05 12:35:00,81.5,58.1,29.95,ESE,113,2.0,-999.0,45,0.00,,,0.00,Wunderground v.1.15,2013-06-05 19:35:00,
2013-06-05 12:40:00,81.5,58.1,29.95,ESE,113,2.0,-999.0,45,0.00,,,0.00,Wunderground v.1.15,2013-06-05 19:40:00,
2013-06-05 12:45:00,82.0,57.9,29.95,NW,315,1.0,-999.0,44,0.00,,,0.00,Wunderground v.1.15,2013-06-05 19:45:00,
2013-06-05 12:50:00,82.0,57.9,29.95,NW,315,1.0,-999.0,44,0.00,,,0.00,Wunderground v.1.15,2013-06-05 19:50:00,
2013-06-05 12:55:00,82.6,58.5,29.95,WSW,248,1.0,-999.0,44,0.00,,,0.00,Wunderground v.1.15,2013-06-05 19:55:00,
2013-06-05 13:00:00,82.6,58.5,29.95,WSW,248,1.0,-999.0,44,0.00,,,0.00,Wunderground v.1.15,2013-06-05 20:00:00,
2013-06-05 13:05:00,82.4,59.5,29.95,SE,135,1.0,-999.0,46,0.00,,,0.00,Wunderground v.1.15,2013-06-05 20:05:00,
2013-06-05 13:10:00,82.4,59.5,29.95,SE,135,1.0,-999.0,46,0.00,,,0.00,Wunderground v.1.15,2013-06-05 20:10:00,
2013-06-05 13:15:00,82.8,58.7,29.95,NE,45,1.0,-999.0,44,0.00,,,0.00,Wunderground v.1.15,2013-06-05 20:15:00,
2013-06-05 13:20:00,82.8,58.7,29.95,NE,45,1.0,-999.0,44,0.00,,,0.00,Wunderground v.1.15,2013-06-05 20:20:00,
2013-06-05 13:25:00,82.4,59.5,29.95,SE,135,1.0,-999.0,46,0.00,,,0.00,Wunderground v.1.15,2013-06-05 20:25:00,
2013-06-05 13:30:00,82.4,59.5,29.95,SE,135,1.0,-999.0,46,0.00,,,0.00,Wunderground v.1.15,2013-06-05 20:30:00,
2013-06-05 13:35:00,82.4,58.9,29.95,ESE,113,1.0,-999.0,45,0.00,,,0.00,Wunderground v.1.15,2013-06-05 20:35:00,
2013-06-05 13:40:00,82.4,58.9,29.95,ESE,113,1.0,-999.0,45,0.00,,,0.00,Wunderground v.1.15,2013-06-05 20:40:00,
2013-06-05 13:45:00,83.5,58.0,29.94,NW,315,1.0,-999.0,42,0.00,,,0.00,Wunderground v.1.15,2013-06-05 20:45:00,
2013-06-05 13:50:00,83.5,58.0,29.94,NW,315,1.0,-999.0,42,0.00,,,0.00,Wunderground v.1.15,2013-06-05 20:50:00,
2013-06-05 13:55:00,84.3,58.0,29.94,NE,45,1.0,-999.0,41,0.00,,,0.00,Wunderground v.1.15,2013-06-05 20:55:00,
2013-06-05 14:00:00,84.3,58.0,29.94,NE,45,1.0,-999.0,41,0.00,,,0.00,Wunderground v.1.15,2013-06-05 21:00:00,
2013-06-05 14:05:00,83.8,57.6,29.94,NNE,23,1.0,-999.0,41,0.00,,,0.00,Wunderground v.1.15,2013-06-05 21:05:00,
2013-06-05 14:10:00,83.8,57.6,29.94,NNE,23,1.0,-999.0,41,0.00,,,0.00,Wunderground v.1.15,2013-06-05 21:10:00,
2013-06-05 14:15:00,84.6,59.0,29.93,North,0,1.0,-999.0,42,0.00,,,0.00,Wunderground v.1.15,2013-06-05 21:15:00,
2013-06-05 14:20:00,84.6,59.0,29.93,North,0,1.0,-999.0,42,0.00,,,0.00,Wunderground v.1.15,2013-06-05 21:20:00,
2013-06-05 14:25:00,84.5,58.2,29.93,NE,45,1.0,-999.0,41,0.00,,,0.00,Wunderground v.1.15,2013-06-05 21:25:00,
2013-06-05 14:30:00,84.5,58.2,29.93,NE,45,1.0,-999.0,41,0.00,,,0.00,Wunderground v.1.15,2013-06-05 21:30:00,
2013-06-05 14:35:00,84.9,59.2,29.93,SSE,158,1.0,-999.0,42,0.00,,,0.00,Wunderground v.1.15,2013-06-05 21:35:00,
2013-06-05 14:40:00,84.9,59.2,29.93,SSE,158,1.0,-999.0,42,0.00,,,0.00,Wunderground v.1.15,2013-06-05 21:40:00,
2013-06-05 14:45:00,84.4,58.1,29.93,NNE,23,1.0,-999.0,41,0.00,,,0.00,Wunderground v.1.15,2013-06-05 21:45:00,
2013-06-05 14:50:00,84.4,58.1,29.93,NNE,23,1.0,-999.0,41,0.00,,,0.00,Wunderground v.1.15,2013-06-05 21:50:00,
2013-06-05 14:55:00,84.3,58.7,29.93,ENE,68,1.0,-999.0,42,0.00,,,0.00,Wunderground v.1.15,2013-06-05 21:55:00,
2013-06-05 15:00:00,84.3,58.7,29.93,ENE,68,1.0,-999.0,42,0.00,,,0.00,Wunderground v.1.15,2013-06-05 22:00:00,
2013-06-05 15:05:00,84.5,58.2,29.93,NNW,338,1.0,-999.0,41,0.00,,,0.00,Wunderground v.1.15,2013-06-05 22:05:00,
2013-06-05 15:10:00,84.5,58.2,29.93,NNW,338,1.0,-999.0,41,0.00,,,0.00,Wunderground v.1.15,2013-06-05 22:10:00,
2013-06-05 15:15:00,84.4,57.4,29.92,SSE,158,1.0,-999.0,40,0.00,,,0.00,Wunderground v.1.15,2013-06-05 22:15:00,
2013-06-05 15:20:00,84.4,57.4,29.92,SSE,158,1.0,-999.0,40,0.00,,,0.00,Wunderground v.1.15,2013-06-05 22:20:00,
2013-06-05 15:25:00,84.7,58.4,29.92,ESE,113,1.0,-999.0,41,0.00,,,0.00,Wunderground v.1.15,2013-06-05 22:25:00,
2013-06-05 15:30:00,84.7,58.4,29.92,ESE,113,1.0,-999.0,41,0.00,,,0.00,Wunderground v.1.15,2013-06-05 22:30:00,
2013-06-05 15:35:00,85.3,58.2,29.92,ESE,113,1.0,-999.0,40,0.00,,,0.00,Wunderground v.1.15,2013-06-05 22:35:00,
2013-06-05 15:40:00,85.3,58.2,29.92,ESE,113,1.0,-999.0,40,0.00,,,0.00,Wunderground v.1.15,2013-06-05 22:40:00,
2013-06-05 15:45:00,85.7,57.9,29.92,NNE,23,0.0,-999.0,39,0.00,,,0.00,Wunderground v.1.15,2013-06-05 22:45:00,
2013-06-05 15:50:00,85.7,57.9,29.92,NNE,23,0.0,-999.0,39,0.00,,,0.00,Wunderground v.1.15,2013-06-05 22:50:00,
2013-06-05 15:55:00,85.5,58.4,29.92,SSE,158,1.0,-999.0,40,0.00,,,0.00,Wunderground v.1.15,2013-06-05 22:55:00,
2013-06-05 16:00:00,85.5,58.4,29.92,SSE,158,1.0,-999.0,40,0.00,,,0.00,Wunderground v.1.15,2013-06-05 23:00:00,
2013-06-05 16:05:00,84.2,57.9,29.92,North,0,1.0,-999.0,41,0.00,,,0.00,Wunderground v.1.15,2013-06-05 23:05:00,
2013-06-05 16:10:00,84.2,57.9,29.92,North,0,1.0,-999.0,41,0.00,,,0.00,Wunderground v.1.15,2013-06-05 23:10:00,
2013-06-05 16:15:00,84.8,57.8,29.91,East,90,1.0,-999.0,40,0.00,,,0.00,Wunderground v.1.15,2013-06-05 23:15:00,
2013-06-05 16:20:00,84.8,57.8,29.91,East,90,1.0,-999.0,40,0.00,,,0.00,Wunderground v.1.15,2013-06-05 23:20:00,
2013-06-05 16:25:00,84.9,58.6,29.91,ESE,113,1.0,-999.0,41,0.00,,,0.00,Wunderground v.1.15,2013-06-05 23:25:00,
2013-06-05 16:30:00,84.9,58.6,29.91,ESE,113,1.0,-999.0,41,0.00,,,0.00,Wunderground v.1.15,2013-06-05 23:30:00,
2013-06-05 16:35:00,84.2,58.6,29.91,SW,225,1.0,-999.0,42,0.00,,,0.00,Wunderground v.1.15,2013-06-05 23:35:00,
2013-06-05 16:40:00,84.2,58.6,29.91,SW,225,1.0,-999.0,42,0.00,,,0.00,Wunderground v.1.15,2013-06-05 23:40:00,
2013-06-05 16:45:00,83.6,58.1,29.91,SE,135,1.0,-999.0,42,0.00,,,0.00,Wunderground v.1.15,2013-06-05 23:45:00,
2013-06-05 16:50:00,83.6,58.1,29.91,SE,135,1.0,-999.0,42,0.00,,,0.00,Wunderground v.1.15,2013-06-05 23:50:00,
2013-06-05 16:55:00,82.9,57.5,29.91,SE,135,1.0,-999.0,42,0.00,,,0.00,Wunderground v.1.15,2013-06-05 23:55:00,
2013-06-05 17:00:00,82.9,57.5,29.91,SE,135,1.0,-999.0,42,0.00,,,0.00,Wunderground v.1.15,2013-06-06 00:00:00,
2013-06-05 17:05:00,82.6,57.2,29.91,ESE,113,1.0,-999.0,42,0.00,,,0.00,Wunderground v.1.15,2013-06-06 00:05:00,
2013-06-05 17:10:00,82.6,57.2,29.91,ESE,113,1.0,-999.0,42,0.00,,,0.00,Wunderground v.1.15,2013-06-06 00:10:00,
2013-06-05 17:15:00,82.4,57.7,29.91,SE,135,1.0,-999.0,43,0.00,,,0.00,Wunderground v.1.15,2013-06-06 00:15:00,
2013-06-05 17:20:00,82.4,57.7,29.91,SE,135,1.0,-999.0,43,0.00,,,0.00,Wunderground v.1.15,2013-06-06 00:20:00,
2013-06-05 17:25:00,81.9,57.2,29.91,SE,135,1.0,-999.0,43,0.00,,,0.00,Wunderground v.1.15,2013-06-06 00:25:00,
2013-06-05 17:30:00,81.9,57.2,29.91,SE,135,1.0,-999.0,43,0.00,,,0.00,Wunderground v.1.15,2013-06-06 00:30:00,
2013-06-05 17:35:00,81.9,57.2,29.90,SE,135,1.0,-999.0,43,0.00,,,0.00,Wunderground v.1.15,2013-06-06 00:35:00,
2013-06-05 17:40:00,81.9,57.2,29.90,SE,135,1.0,-999.0,43,0.00,,,0.00,Wunderground v.1.15,2013-06-06 00:40:00,
2013-06-05 17:45:00,81.5,58.1,29.90,SE,135,1.0,-999.0,45,0.00,,,0.00,Wunderground v.1.15,2013-06-06 00:45:00,
2013-06-05 17:50:00,81.5,58.1,29.90,SE,135,1.0,-999.0,45,0.00,,,0.00,Wunderground v.1.15,2013-06-06 00:50:00,
2013-06-05 17:55:00,81.2,57.2,29.90,ESE,113,1.0,-999.0,44,0.00,,,0.00,Wunderground v.1.15,2013-06-06 00:55:00,
2013-06-05 18:00:00,81.2,57.2,29.90,ESE,113,1.0,-999.0,44,0.00,,,0.00,Wunderground v.1.15,2013-06-06 01:00:00,
2013-06-05 18:05:00,80.5,57.2,29.91,SSE,158,1.0,-999.0,45,0.00,,,0.00,Wunderground v.1.15,2013-06-06 01:05:00,
2013-06-05 18:10:00,80.5,57.2,29.91,SSE,158,1.0,-999.0,45,0.00,,,0.00,Wunderground v.1.15,2013-06-06 01:10:00,
2013-06-05 18:15:00,79.9,57.9,29.91,ESE,113,0.0,-999.0,47,0.00,,,0.00,Wunderground v.1.15,2013-06-06 01:15:00,
2013-06-05 18:20:00,79.9,57.9,29.91,ESE,113,0.0,-999.0,47,0.00,,,0.00,Wunderground v.1.15,2013-06-06 01:20:00,
2013-06-05 18:25:00,79.2,57.2,29.91,SE,135,0.0,-999.0,47,0.00,,,0.00,Wunderground v.1.15,2013-06-06 01:25:00,
2013-06-05 18:30:00,79.2,57.2,29.91,SE,135,0.0,-999.0,47,0.00,,,0.00,Wunderground v.1.15,2013-06-06 01:30:00,
2013-06-05 18:35:00,78.7,57.4,29.91,SE,135,0.0,-999.0,48,0.00,,,0.00,Wunderground v.1.15,2013-06-06 01:35:00,
2013-06-05 18:40:00,78.7,57.4,29.91,SE,135,0.0,-999.0,48,0.00,,,0.00,Wunderground v.1.15,2013-06-06 01:40:00,
2013-06-05 18:45:00,78.5,57.2,29.91,SE,135,1.0,-999.0,48,0.00,,,0.00,Wunderground v.1.15,2013-06-06 01:45:00,
2013-06-05 18:50:00,78.5,57.2,29.91,SE,135,1.0,-999.0,48,0.00,,,0.00,Wunderground v.1.15,2013-06-06 01:50:00,
2013-06-05 18:55:00,78.4,57.7,29.91,SE,135,0.0,-999.0,49,0.00,,,0.00,Wunderground v.1.15,2013-06-06 01:55:00,
2013-06-05 19:00:00,78.4,57.7,29.91,SE,135,0.0,-999.0,49,0.00,,,0.00,Wunderground v.1.15,2013-06-06 02:00:00,
2013-06-05 19:05:00,78.1,56.8,29.90,SE,135,1.0,-999.0,48,0.00,,,0.00,Wunderground v.1.15,2013-06-06 02:05:00,
2013-06-05 19:10:00,78.1,56.8,29.90,SE,135,1.0,-999.0,48,0.00,,,0.00,Wunderground v.1.15,2013-06-06 02:10:00,
2013-06-05 19:15:00,78.0,57.3,29.91,ESE,113,0.0,-999.0,49,0.00,,,0.00,Wunderground v.1.15,2013-06-06 02:15:00,
2013-06-05 19:20:00,78.0,57.3,29.91,ESE,113,0.0,-999.0,49,0.00,,,0.00,Wunderground v.1.15,2013-06-06 02:20:00,
2013-06-05 19:25:00,77.7,57.6,29.91,ESE,113,0.0,-999.0,50,0.00,,,0.00,Wunderground v.1.15,2013-06-06 02:25:00,
2013-06-05 19:30:00,77.7,57.6,29.91,ESE,113,0.0,-999.0,50,0.00,,,0.00,Wunderground v.1.15,2013-06-06 02:30:00,
2013-06-05 19:35:00,77.0,56.4,29.91,ESE,113,0.0,-999.0,49,0.00,,,0.00,Wunderground v.1.15,2013-06-06 02:35:00,
2013-06-05 19:40:00,77.0,56.4,29.91,ESE,113,0.0,-999.0,49,0.00,,,0.00,Wunderground v.1.15,2013-06-06 02:40:00,
2013-06-05 19:45:00,76.6,55.4,29.91,N/A,-737280,0.0,-999.0,48,0.00,,,0.00,Wunderground v.1.15,2013-06-06 02:45:00,
2013-06-05 19:50:00,76.6,55.4,29.91,N/A,-737280,0.0,-999.0,48,0.00,,,0.00,Wunderground v.1.15,2013-06-06 02:50:00,
2013-06-05 19:55:00,76.2,55.1,29.92,N/A,-737280,0.0,-999.0,48,0.00,,,0.00,Wunderground v.1.15,2013-06-06 02:55:00,
2013-06-05 20:00:00,76.2,55.1,29.92,N/A,-737280,0.0,-999.0,48,0.00,,,0.00,Wunderground v.1.15,2013-06-06 03:00:00,
2013-06-05 20:05:00,75.9,54.8,29.92,N/A,-737280,0.0,-999.0,48,0.00,,,0.00,Wunderground v.1.15,2013-06-06 03:05:00,
2013-06-05 20:10:00,75.9,54.8,29.92,N/A,-737280,0.0,-999.0,48,0.00,,,0.00,Wunderground v.1.15,2013-06-06 03:10:00,
2013-06-05 20:15:00,75.3,54.8,29.92,N/A,-737280,0.0,-999.0,49,0.00,,,0.00,Wunderground v.1.15,2013-06-06 03:15:00,
2013-06-05 20:20:00,75.3,54.8,29.92,N/A,-737280,0.0,-999.0,49,0.00,,,0.00,Wunderground v.1.15,2013-06-06 03:20:00,
2013-06-05 20:25:00,74.7,54.3,29.92,ESE,113,0.0,-999.0,49,0.00,,,0.00,Wunderground v.1.15,2013-06-06 03:25:00,
2013-06-05 20:30:00,74.7,54.3,29.92,ESE,113,0.0,-999.0,49,0.00,,,0.00,Wunderground v.1.15,2013-06-06 03:30:00,
2013-06-05 20:35:00,74.4,54.5,29.92,N/A,-737280,0.0,-999.0,50,0.00,,,0.00,Wunderground v.1.15,2013-06-06 03:35:00,
2013-06-05 20:40:00,74.4,54.5,29.92,N/A,-737280,0.0,-999.0,50,0.00,,,0.00,Wunderground v.1.15,2013-06-06 03:40:00,
2013-06-05 20:45:00,74.0,54.2,29.92,N/A,-737280,0.0,-999.0,50,0.00,,,0.00,Wunderground v.1.15,2013-06-06 03:45:00,
2013-06-05 20:50:00,74.0,54.2,29.92,N/A,-737280,0.0,-999.0,50,0.00,,,0.00,Wunderground v.1.15,2013-06-06 03:50:00,
2013-06-05 20:55:00,73.6,53.8,29.92,N/A,-737280,0.0,-999.0,50,0.00,,,0.00,Wunderground v.1.15,2013-06-06 03:55:00,
2013-06-05 21:00:00,73.6,53.8,29.92,N/A,-737280,0.0,-999.0,50,0.00,,,0.00,Wunderground v.1.15,2013-06-06 04:00:00,
2013-06-05 21:05:00,73.4,54.2,29.92,N/A,-737280,0.0,-999.0,51,0.00,,,0.00,Wunderground v.1.15,2013-06-06 04:05:00,
2013-06-05 21:10:00,73.4,54.2,29.92,N/A,-737280,0.0,-999.0,51,0.00,,,0.00,Wunderground v.1.15,2013-06-06 04:10:00,
2013-06-05 21:15:00,73.3,54.1,29.92,SE,135,0.0,-999.0,51,0.00,,,0.00,Wunderground v.1.15,2013-06-06 04:15:00,
2013-06-05 21:20:00,73.3,54.1,29.92,SE,135,0.0,-999.0,51,0.00,,,0.00,Wunderground v.1.15,2013-06-06 04:20:00,
2013-06-05 21:25:00,73.3,54.6,29.92,N/A,-737280,0.0,-999.0,52,0.00,,,0.00,Wunderground v.1.15,2013-06-06 04:25:00,
2013-06-05 21:30:00,73.3,54.6,29.92,N/A,-737280,0.0,-999.0,52,0.00,,,0.00,Wunderground v.1.15,2013-06-06 04:30:00,
2013-06-05 21:35:00,73.0,54.9,29.93,N/A,-737280,0.0,-999.0,53,0.00,,,0.00,Wunderground v.1.15,2013-06-06 04:35:00,
2013-06-05 21:40:00,73.0,54.9,29.93,N/A,-737280,0.0,-999.0,53,0.00,,,0.00,Wunderground v.1.15,2013-06-06 04:40:00,
2013-06-05 21:50:00,72.8,53.6,29.93,N/A,-737280,0.0,-999.0,51,0.00,,,0.00,Wunderground v.1.15,2013-06-06 04:50:00,
2013-06-05 21:55:00,73.0,54.3,29.93,SE,135,0.0,-999.0,52,0.00,,,0.00,Wunderground v.1.15,2013-06-06 04:55:00,
2013-06-05 22:00:00,73.0,54.3,29.93,SE,135,0.0,-999.0,52,0.00,,,0.00,Wunderground v.1.15,2013-06-06 05:00:00,
2013-06-05 22:05:00,72.4,55.8,29.92,SE,135,1.0,-999.0,56,0.00,,,0.00,Wunderground v.1.15,2013-06-06 05:05:00,
2013-06-05 22:10:00,72.4,55.8,29.92,SE,135,1.0,-999.0,56,0.00,,,0.00,Wunderground v.1.15,2013-06-06 05:10:00,
2013-06-05 22:15:00,71.3,55.8,29.92,SE,135,1.0,-999.0,58,0.00,,,0.00,Wunderground v.1.15,2013-06-06 05:15:00,
2013-06-05 22:20:00,71.3,55.8,29.92,SE,135,1.0,-999.0,58,0.00,,,0.00,Wunderground v.1.15,2013-06-06 05:20:00,
2013-06-05 22:30:00,70.9,55.4,29.92,NNE,23,1.0,-999.0,58,0.00,,,0.00,Wunderground v.1.15,2013-06-06 05:30:00,
2013-06-05 22:35:00,71.0,56.4,29.93,NW,315,1.0,-999.0,60,0.00,,,0.00,Wunderground v.1.15,2013-06-06 05:35:00,
2013-06-05 22:40:00,71.0,56.4,29.93,NW,315,1.0,-999.0,60,0.00,,,0.00,Wunderground v.1.15,2013-06-06 05:40:00,
2013-06-05 22:45:00,70.7,57.0,29.92,NW,315,1.0,-999.0,62,0.00,,,0.00,Wunderground v.1.15,2013-06-06 05:45:00,
2013-06-05 22:50:00,70.7,57.0,29.92,NW,315,1.0,-999.0,62,0.00,,,0.00,Wunderground v.1.15,2013-06-06 05:50:00,
2013-06-05 22:55:00,70.2,57.4,29.92,NNE,23,0.0,-999.0,64,0.00,,,0.00,Wunderground v.1.15,2013-06-06 05:55:00,
2013-06-05 23:00:00,70.2,57.4,29.92,NNE,23,0.0,-999.0,64,0.00,,,0.00,Wunderground v.1.15,2013-06-06 06:00:00,
2013-06-05 23:05:00,70.1,57.8,29.92,North,0,0.0,-999.0,65,0.00,,,0.00,Wunderground v.1.15,2013-06-06 06:05:00,
2013-06-05 23:15:00,70.1,57.8,29.92,N/A,-737280,0.0,-999.0,65,0.00,,,0.00,Wunderground v.1.15,2013-06-06 06:15:00,
2013-06-05 23:20:00,70.1,57.8,29.92,N/A,-737280,0.0,-999.0,65,0.00,,,0.00,Wunderground v.1.15,2013-06-06 06:20:00,
2013-06-05 23:25:00,69.4,56.7,29.92,North,0,0.0,-999.0,64,0.00,,,0.00,Wunderground v.1.15,2013-06-06 06:25:00,
2013-06-05 23:30:00,69.4,56.7,29.92,North,0,0.0,-999.0,64,0.00,,,0.00,Wunderground v.1.15,2013-06-06 06:30:00,
2013-06-05 23:35:00,68.6,55.5,29.92,ESE,113,1.0,-999.0,63,0.00,,,0.00,Wunderground v.1.15,2013-06-06 06:35:00,
2013-06-05 23:40:00,68.6,55.5,29.92,ESE,113,1.0,-999.0,63,0.00,,,0.00,Wunderground v.1.15,2013-06-06 06:40:00,
2013-06-05 23:45:00,69.1,56.0,29.93,ESE,113,1.0,-999.0,63,0.00,,,0.00,Wunderground v.1.15,2013-06-06 06:45:00,
2013-06-05 23:50:00,69.1,56.0,29.93,ESE,113,1.0,-999.0,63,0.00,,,0.00,Wunderground v.1.15,2013-06-06 06:50:00,
2013-06-05 23:55:00,68.9,55.3,29.93,ESE,113,0.0,-999.0,62,0.00,,,0.00,Wunderground v.1.15,2013-06-06 06:55:00,